TimeEDT,TemperatureF,Dew PointF,Humidity,Sea Level PressureIn,VisibilityMPH,Wind Direction,Wind SpeedMPH,Gust SpeedMPH,PrecipitationIn,Events,Conditions,WindDirDegrees,DateUTC
12:05 AM,39.2,37.4,93,29.66,5.0,WNW,10.4,-,N/A,,Overcast,290,2012-11-01 04:05:00
12:17 AM,39.2,37.4,93,29.66,5.0,WNW,11.5,-,N/A,,Overcast,300,2012-11-01 04:17:00
12:53 AM,39.9,37.0,89,29.68,5.0,WNW,11.5,-,N/A,,Overcast,300,2012-11-01 04:53:00
1:53 AM,39.9,39.0,97,29.68,5.0,WNW,10.4,-,N/A,,Overcast,300,2012-11-01 05:53:00
2:53 AM,39.9,39.0,97,29.68,9.0,WNW,11.5,-,N/A,,Overcast,300,2012-11-01 06:53:00
3:53 AM,39.9,37.9,93,29.67,6.0,WNW,11.5,-,N/A,,Overcast,290,2012-11-01 07:53:00
4:35 AM,39.2,37.4,93,29.66,10.0,WNW,13.8,-,N/A,,Overcast,290,2012-11-01 08:35:00
4:53 AM,39.9,37.9,93,29.68,10.0,WNW,13.8,-,N/A,,Overcast,290,2012-11-01 08:53:00
5:43 AM,39.2,37.4,93,29.66,10.0,WNW,11.5,-,N/A,,Overcast,290,2012-11-01 09:43:00
5:53 AM,39.9,37.9,93,29.68,10.0,WNW,15.0,-,N/A,,Overcast,300,2012-11-01 09:53:00
6:53 AM,39.9,37.0,89,29.69,10.0,WNW,15.0,-,N/A,,Overcast,290,2012-11-01 10:53:00
7:53 AM,39.0,35.1,86,29.70,10.0,West,17.3,-,N/A,,Overcast,280,2012-11-01 11:53:00
8:53 AM,39.0,34.0,82,29.72,10.0,WNW,17.3,-,N/A,,Overcast,290,2012-11-01 12:53:00
9:53 AM,39.0,33.1,79,29.73,10.0,WNW,17.3,-,N/A,,Overcast,290,2012-11-01 13:53:00
10:53 AM,41.0,33.1,73,29.73,10.0,WNW,18.4,27.6,N/A,,Overcast,300,2012-11-01 14:53:00
11:12 AM,42.8,32.0,66,29.72,10.0,WNW,20.7,28.8,N/A,,Overcast,290,2012-11-01 15:12:00
11:53 AM,43.0,32.0,65,29.74,10.0,WNW,15.0,25.3,N/A,,Overcast,300,2012-11-01 15:53:00
12:21 PM,42.8,32.0,66,29.72,10.0,WNW,13.8,-,N/A,,Overcast,290,2012-11-01 16:21:00
12:53 PM,43.0,30.9,62,29.73,10.0,West,18.4,-,N/A,,Overcast,280,2012-11-01 16:53:00
1:26 PM,44.6,30.2,57,29.71,10.0,WNW,18.4,21.9,N/A,,Overcast,290,2012-11-01 17:26:00
1:53 PM,45.0,32.0,60,29.72,10.0,West,13.8,-,N/A,,Overcast,280,2012-11-01 17:53:00
2:53 PM,46.0,30.9,56,29.71,10.0,WNW,17.3,-,N/A,,Mostly Cloudy,290,2012-11-01 18:53:00
3:53 PM,46.9,30.9,54,29.71,10.0,West,15.0,-,N/A,,Mostly Cloudy,270,2012-11-01 19:53:00
4:53 PM,46.9,30.9,54,29.71,10.0,West,15.0,25.3,N/A,,Mostly Cloudy,280,2012-11-01 20:53:00
5:53 PM,44.1,30.0,58,29.73,10.0,West,12.7,20.7,N/A,,Overcast,270,2012-11-01 21:53:00
6:53 PM,43.0,30.0,60,29.74,10.0,West,9.2,-,N/A,,Overcast,270,2012-11-01 22:53:00
7:53 PM,43.0,30.0,60,29.76,10.0,WNW,6.9,-,N/A,,Overcast,300,2012-11-01 23:53:00
8:53 PM,43.0,28.0,56,29.78,10.0,NNW,9.2,-,N/A,,Overcast,340,2012-11-02 00:53:00
9:53 PM,42.1,28.9,60,29.79,10.0,WNW,12.7,-,N/A,,Overcast,300,2012-11-02 01:53:00
10:53 PM,41.0,28.9,62,29.80,10.0,WNW,12.7,-,N/A,,Overcast,290,2012-11-02 02:53:00
11:53 PM,39.9,28.0,63,29.79,10.0,WNW,12.7,-,N/A,,Overcast,290,2012-11-02 03:53:00